Temp
20 20 21 21 20 20 20 20 20 20 20 19 19 19 19 19 19 19 19 19 19 19 19 18 18 18 18 18 18 18 18 17 18 17 17 17 17 16 17 17 17 16 16
21 20 20 20 20 20 20 20 20 20 20 20 19 19 19 19 18 19 19 19 19 19 18 18 18 18 18 18 18 18 18 17 17 17 17 17 17 17 17 18 17 17 17
21 21 21 21 20 20 20 20 20 20 20 19 19 19 19 19 19 19 19 19 18 19 18 18 18 18 18 18 18 17 18 18 17 18 18 17 17 17 17 17 18 17 17
21 21 21 21 20 20 20 20 20 20 20 20 19 19 19 19 19 19 19 19 19 18 18 18 18 18 18 18 18 18 18 17 17 18 18 17 17 17 17 17 18 17 17
21 21 21 20 20 20 20 20 20 20 20 20 19 19 19 19 19 19 19 19 19 19 18 18 18 18 18 18 18 18 17 17 18 18 18 18 18 17 17 17 17 17 17
21 21 21 21 21 21 20 20 20 20 20 20 20 20 19 19 19 19 19 19 19 19 18 18 18 18 18 18 18 18 17 17 17 17 18 17 18 18 18 17 17 17 17
21 21 21 21 21 21 21 21 20 20 20 20 20 20 20 19 19 19 19 19 19 18 18 18 18 18 18 18 18 17 17 17 17 17 17 17 17 17 18 18 17 17 17
22 21 21 21 21 21 21 21 20 20 20 20 20 20 19 19 19 19 19 18 18 18 18 18 18 18 18 17 18 17 17 17 17 17 17 17 17 17 18 18 17 17 17
22 22 21 21 21 20 21 20 20 20 20 20 20 20 19 19 19 19 19 18 18 18 18 18 18 18 18 18 18 17 17 17 16 17 17 17 17 17 18 18 18 18 17
22 22 22 21 21 21 20 20 20 20 20 20 20 20 19 19 19 19 19 18 18 18 18 18 18 18 18 19 18 18 17 17 17 17 17 17 17 17 18 18 18 18 18
21 21 22 22 21 21 21 20 20 20 20 20 20 19 19 19 19 19 18 18 18 18 18 18 18 18 18 18 19 18 18 17 17 17 17 17 18 18 18 18 18 18 18
21 21 21 21 21 21 21 21 20 20 20 19 19 19 19 19 18 18 18 18 18 18 18 18 18 18 18 18 18 18 18 18 17 18 17 17 17 18 18 18 18 18 18
22 21 21 21 21 21 21 20 20 20 19 19 19 19 20 19 19 19 19 19 18 18 18 18 18 18 18 19 19 18 18 18 17 18 17 17 17 18 18 18 18 18 18
21 22 21 21 21 20 20 20 19 19 20 20 19 18 19 19 19 19 19 19 18 17 18 18 18 18 18 18 19 19 18 18 17 18 18 17 17 17 18 18 18 18 18
22 22 21 21 21 21 20 19 19 19 19 19 19 19 19 20 19 19 19 19 19 18 18 18 18 18 18 18 18 19 19 19 18 17 18 17 17 17 17 18 17 17 18
22 22 22 21 20 19 19 19 19 19 18 19 19 18 18 19 19 19 19 18 18 18 18 18 18 18 18 18 18 17 18 19 18 17 17 17 17 17 18 18 17 17 17
23 22 22 20 19 19 19 19 19 19 19 19 19 19 19 19 19 19 18 18 17 17 17 18 18 17 17 18 18 18 18 18 18 18 17 17 17 17 17 17 18 17 17
23 22 22 21 20 19 19 19 20 19 19 19 19 19 19 19 18 18 18 17 17 18 18 18 18 18 17 18 18 18 18 18 19 18 18 18 17 18 17 17 17 17 17
23 22 21 20 19 19 19 19 19 18 18 18 19 19 19 19 18 18 18 18 18 17 17 18 18 18 18 18 18 18 18 18 19 18 18 18 18 18 18 18 17 17 17
23 22 21 21 20 19 19 19 18 19 18 18 18 18 18 19 18 18 18 17 17 17 17 17 17 17 17 17 17 17 17 18 19 19 18 18 18 18 18 18 18 17 17
22 22 22 21 20 20 19 19 18 18 18 19 19 18 19 18 18 18 18 17 17 16 16 16 17 17 17 17 17 17 17 18 18 18 18 18 18 17 17 17 17 17 18
23 22 22 21 21 20 19 18 18 17 18 18 18 18 18 18 18 18 18 18 17 17 16 16 16 16 16 17 17 17 16 18 18 19 19 18 18 18 17 17 17 17 17
22 22 22 20 20 19 19 19 18 18 18 18 18 18 18 18 18 17 17 16 16 16 16 16 15 16 16 16 17 16 16 16 18 19 19 19 18 18 18 17 17 17 17
22 22 20 19 20 19 18 18 18 18 18 18 18 18 17 17 17 16 16 16 16 16 16 16 16 16 16 16 16 16 16 17 16 18 18 19 19 17 18 17 17 17 17
22 22 20 19 19 19 19 18 18 18 18 18 17 17 17 17 17 16 16 16 16 16 16 16 16 16 16 16 16 16 17 16 17 17 16 18 18 17 18 17 17 17 17
22 21 20 20 19 18 18 18 18 17 17 17 17 17 17 16 16 16 16 16 16 16 16 16 16 16 16 16 16 16 16 16 16 17 17 16 17 18 17 17 17 17 17
Height
1542 1544 1545 1549 1550 1551 1552 1553 1554 1554 1555 1555 1556 1558 1560 1561 1562 1562 1562 1563 1564 1565 1566 1567 1568 1568 1569 1569 1570 1570 1571 1572 1572 1573 1573 1574 1575 1576 1576 1577 1578 1578 1579
1540 1544 1547 1549 1551 1552 1553 1555 1555 1556 1557 1557 1558 1560 1561 1562 1563 1564 1565 1565 1566 1567 1567 1568 1569 1569 1570 1570 1571 1572 1572 1573 1574 1575 1575 1576 1578 1578 1578 1578 1579 1580 1581
1541 1544 1546 1549 1552 1554 1555 1556 1556 1557 1558 1559 1560 1561 1562 1563 1564 1566 1567 1566 1567 1568 1569 1569 1569 1570 1571 1572 1572 1573 1573 1574 1575 1576 1577 1578 1579 1580 1580 1580 1580 1581 1582
1541 1544 1548 1550 1553 1554 1555 1557 1557 1558 1559 1560 1561 1561 1562 1563 1564 1566 1567 1568 1568 1569 1569 1569 1569 1570 1571 1572 1573 1573 1574 1575 1576 1576 1578 1579 1580 1581 1581 1581 1581 1581 1583
1542 1546 1549 1551 1553 1554 1556 1557 1558 1559 1560 1561 1562 1562 1563 1564 1565 1567 1567 1568 1569 1569 1570 1570 1569 1570 1571 1572 1573 1574 1575 1576 1577 1577 1578 1579 1580 1582 1583 1582 1583 1583 1584
1542 1546 1549 1551 1553 1555 1556 1557 1559 1560 1560 1561 1562 1563 1564 1565 1566 1567 1567 1568 1568 1569 1570 1570 1570 1569 1573 1573 1574 1575 1576 1576 1578 1578 1579 1580 1581 1582 1583 1584 1585 1585 1585
1542 1546 1549 1551 1553 1554 1556 1557 1558 1560 1561 1562 1562 1563 1564 1566 1567 1568 1568 1569 1569 1569 1571 1571 1571 1572 1572 1575 1575 1576 1577 1578 1579 1580 1581 1581 1582 1583 1584 1584 1585 1586 1586
1544 1547 1549 1551 1553 1554 1556 1557 1558 1560 1561 1563 1564 1564 1565 1566 1567 1569 1570 1570 1570 1570 1571 1571 1572 1572 1573 1575 1576 1577 1578 1579 1579 1580 1581 1583 1583 1584 1585 1585 1585 1586 1587
1545 1548 1550 1552 1553 1554 1556 1557 1558 1560 1561 1563 1564 1565 1565 1566 1568 1569 1570 1571 1572 1572 1572 1572 1572 1574 1574 1574 1576 1577 1578 1579 1579 1580 1581 1582 1584 1584 1585 1585 1585 1586 1587
1546 1547 1549 1552 1553 1554 1555 1556 1558 1560 1561 1563 1564 1566 1567 1567 1568 1569 1570 1571 1572 1573 1573 1572 1572 1573 1573 1574 1575 1576 1577 1577 1578 1580 1581 1582 1583 1584 1585 1585 1585 1586 1587
1546 1547 1549 1551 1553 1554 1555 1556 1558 1560 1561 1563 1564 1566 1567 1568 1568 1569 1570 1571 1572 1572 1573 1572 1572 1573 1574 1574 1575 1576 1577 1578 1578 1579 1580 1581 1582 1583 1583 1584 1585 1586 1587
1545 1547 1549 1550 1552 1554 1555 1556 1557 1559 1561 1562 1563 1564 1566 1568 1568 1569 1569 1570 1571 1571 1572 1572 1572 1572 1573 1573 1574 1575 1576 1577 1578 1579 1579 1580 1582 1582 1582 1583 1584 1585 1586
1545 1547 1548 1550 1552 1554 1556 1557 1557 1559 1560 1561 1563 1564 1564 1566 1567 1568 1568 1569 1570 1571 1571 1572 1572 1572 1572 1573 1574 1575 1576 1577 1577 1577 1578 1580 1581 1581 1582 1582 1583 1584 1585
1543 1546 1548 1550 1552 1555 1556 1557 1558 1559 1559 1559 1563 1564 1563 1564 1566 1567 1566 1566 1569 1571 1571 1571 1571 1572 1572 1572 1573 1573 1574 1575 1576 1576 1577 1578 1580 1581 1582 1582 1583 1584 1585
1542 1544 1546 1548 1550 1552 1554 1556 1558 1558 1559 1560 1561 1563 1562 1563 1564 1565 1565 1565 1566 1568 1570 1571 1570 1570 1570 1571 1571 1572 1573 1573 1572 1573 1575 1577 1578 1579 1580 1581 1581 1582 1584
1542 1543 1545 1549 1550 1553 1554 1555 1556 1557 1558 1558 1560 1560 1561 1561 1562 1563 1563 1564 1565 1566 1567 1566 1567 1567 1567 1568 1569 1569 1571 1570 1570 1570 1573 1574 1576 1576 1577 1580 1580 1581 1582
1540 1543 1545 1548 1549 1550 1552 1553 1551 1554 1555 1556 1556 1557 1557 1558 1560 1561 1560 1561 1563 1562 1562 1563 1563 1562 1562 1563 1564 1566 1567 1568 1568 1569 1569 1571 1573 1574 1575 1577 1577 1578 1579
1538 1540 1544 1545 1548 1548 1548 1550 1550 1549 1552 1553 1554 1556 1555 1555 1557 1557 1557 1557 1560 1558 1558 1559 1559 1559 1559 1560 1561 1561 1563 1564 1565 1566 1566 1567 1568 1570 1572 1573 1574 1575 1576
1536 1539 1542 1544 1544 1545 1546 1548 1548 1548 1549 1551 1552 1553 1554 1555 1555 1554 1554 1554 1555 1554 1554 1554 1554 1555 1556 1556 1557 1558 1557 1559 1561 1562 1562 1563 1564 1566 1567 1569 1570 1572 1573
1537 1540 1542 1545 1544 1545 1545 1547 1546 1547 1549 1550 1552 1552 1553 1553 1552 1552 1552 1552 1551 1550 1549 1549 1549 1551 1551 1552 1552 1553 1553 1554 1556 1557 1559 1561 1561 1563 1565 1565 1567 1568 1569
1536 1540 1543 1544 1545 1543 1543 1544 1544 1546 1549 1550 1551 1552 1551 1551 1551 1551 1550 1549 1547 1545 1544 1544 1544 1545 1546 1547 1547 1548 1549 1551 1552 1554 1555 1557 1558 1561 1562 1563 1564 1565 1565
1535 1538 1543 1542 1541 1541 1541 1541 1542 1546 1548 1549 1549 1550 1550 1549 1548 1548 1547 1545 1543 1542 1540 1539 1539 1540 1541 1542 1543 1544 1545 1547 1548 1550 1551 1553 1555 1557 1559 1560 1560 1560 1561
1535 1537 1540 1538 1539 1540 1540 1541 1543 1546 1547 1548 1548 1547 1546 1546 1545 1544 1543 1541 1539 1537 1536 1535 1536 1536 1536 1538 1540 1542 1544 1545 1545 1548 1548 1549 1551 1554 1555 1556 1556 1556 1557
1535 1537 1538 1539 1540 1541 1542 1543 1543 1545 1545 1546 1546 1545 1544 1543 1542 1541 1539 1537 1535 1533 1532 1531 1530 1531 1532 1534 1536 1537 1539 1542 1543 1545 1545 1546 1545 1549 1552 1552 1552 1552 1552
1535 1537 1538 1539 1540 1543 1544 1544 1545 1545 1545 1545 1545 1544 1542 1541 1540 1539 1537 1534 1533 1531 1528 1526 1526 1527 1529 1530 1532 1534 1536 1539 1541 1543 1543 1545 1546 1547 1549 1550 1548 1549 1550
1533 1536 1538 1538 1539 1542 1545 1546 1546 1546 1546 1545 1544 1543 1542 1540 1538 1537 1535 1532 1531 1529 1527 1524 1523 1525 1526 1526 1528 1530 1533 1536 1538 1540 1541 1545 1546 1545 1545 1546 1545 1546 1546
Wind_Speed
26 22 20 20 19 19 18 18 18 17 16 16 17 17 15 14 13 14 14 14 12 11 9 9 9 9 10 11 10 10 11 10 11 11 13 15 18 18 16 15 17 18 16
29 22 20 21 19 18 17 16 16 16 16 15 16 16 14 14 14 15 14 13 11 10 9 8 9 10 10 12 11 11 13 14 13 13 14 16 15 16 16 14 14 16 15
28 24 22 21 19 18 16 15 15 15 16 15 16 15 12 11 13 13 13 11 10 8 8 9 8 9 10 11 13 13 15 17 17 13 14 13 12 12 11 12 13 15 15
27 25 22 20 18 17 16 15 14 14 14 14 14 13 12 12 12 12 10 9 9 8 7 7 8 8 10 12 13 14 14 19 17 18 15 12 11 11 10 11 14 17 15
28 24 22 19 17 16 15 14 13 13 14 14 13 12 11 11 11 10 9 8 7 8 7 6 6 7 10 14 13 15 16 17 17 15 14 11 8 7 8 11 14 14 14
28 24 22 19 17 15 14 13 12 12 12 12 12 11 10 9 9 8 8 7 7 7 6 5 6 7 11 14 14 15 14 11 14 13 10 9 8 5 7 11 13 13 13
28 24 21 18 16 15 14 13 12 11 11 11 11 10 10 9 8 7 6 6 6 7 6 5 5 7 10 15 15 15 15 17 15 11 8 7 5 4 5 11 12 10 11
22 21 19 17 16 15 14 13 12 11 10 10 9 9 9 8 7 6 4 4 5 6 5 4 4 6 10 14 15 15 12 12 12 11 9 8 3 3 4 8 10 9 10
21 19 18 17 16 14 14 13 12 11 10 9 8 9 8 7 7 6 4 3 3 2 3 4 4 5 9 14 16 17 14 10 8 7 8 9 6 4 5 6 9 10 10
18 15 16 16 15 14 14 13 12 10 10 9 7 7 6 6 6 5 4 3 2 1 3 3 3 5 8 12 17 18 17 16 12 13 7 9 7 4 5 6 8 10 11
16 13 16 17 15 13 13 13 11 10 8 7 7 6 6 5 4 5 4 2 0 1 3 4 4 4 6 11 15 16 16 15 13 13 7 10 9 6 6 7 8 10 10
17 14 13 14 14 14 14 13 12 11 9 8 7 7 5 6 4 4 3 3 3 3 3 4 5 6 5 8 11 13 14 14 14 12 8 9 11 7 7 8 8 10 11
12 13 13 13 10 11 14 14 13 11 9 8 8 8 6 6 2 4 4 4 5 7 6 6 7 7 8 8 9 11 10 14 16 14 10 8 11 11 8 10 10 11 11
16 11 12 9 6 4 10 10 10 10 10 5 6 10 6 8 10 10 7 6 8 8 10 8 9 8 9 12 13 10 13 15 16 15 12 11 11 10 12 11 13 13 12
16 13 12 10 9 4 5 9 11 10 10 10 13 13 11 12 10 11 9 10 12 11 13 11 11 10 10 11 14 10 12 16 20 19 17 15 15 13 13 14 15 16 15
19 16 14 11 7 8 5 5 8 14 14 13 13 10 14 9 11 12 11 13 17 20 18 16 16 20 21 20 17 14 18 17 18 21 19 16 17 16 15 15 16 17 18
19 18 16 13 13 12 11 10 6 10 6 9 10 12 14 14 11 10 10 13 16 19 21 23 20 21 23 24 24 19 18 16 19 19 19 20 18 17 16 16 17 19 18
17 19 16 14 12 12 13 13 5 5 10 8 10 10 7 13 11 12 12 12 13 16 16 17 15 11 12 18 18 16 26 16 16 18 19 21 22 22 23 22 21 19 19
18 19 17 15 11 13 9 10 7 5 4 8 9 8 8 7 10 12 14 14 15 16 18 16 18 14 15 18 23 20 19 20 18 16 15 18 19 18 20 22 23 22 20
19 19 18 11 8 8 9 9 9 8 3 8 7 9 9 9 7 12 16 15 15 16 19 20 18 16 16 16 17 17 15 19 20 17 18 18 19 19 19 20 21 24 25
21 21 13 9 8 11 9 11 9 11 9 8 6 9 11 7 8 5 9 10 11 15 16 18 19 20 19 17 17 20 18 19 22 20 20 24 22 19 19 20 21 23 24
22 17 11 11 4 4 4 4 5 12 9 2 5 4 2 4 6 9 12 11 14 15 12 14 17 19 19 17 16 17 18 21 21 22 24 23 23 20 19 18 20 23 24
20 16 12 6 3 5 9 11 14 4 1 2 1 3 5 6 7 11 13 14 17 16 14 13 13 18 19 20 20 16 11 10 12 19 23 24 26 23 20 19 19 19 20
13 10 6 4 3 9 9 8 6 3 2 1 3 5 6 7 8 11 15 15 10 11 10 10 11 13 16 20 20 20 23 12 8 8 9 17 18 22 21 18 17 16 15
9 6 7 4 7 12 11 8 4 2 1 1 2 5 6 9 11 14 14 9 8 9 12 11 9 11 13 15 19 20 18 21 19 17 14 11 10 11 11 12 12 14 15
8 11 10 7 14 14 9 6 4 3 3 3 2 5 7 9 11 13 10 8 8 8 7 5 1 6 9 12 14 16 19 21 22 20 17 14 8 6 7 8 6 8 12
Wind_Direction
162 153 157 152 148 141 130 126 127 129 129 131 132 134 134 135 138 142 143 144 146 146 140 134 130 131 126 125 127 117 119 119 119 123 120 122 122 121 115 112 121 120 118
159 153 155 156 149 142 135 130 125 126 131 134 137 139 137 138 139 143 144 144 145 143 139 134 133 130 132 126 125 122 121 121 127 131 135 130 125 126 108 109 124 128 126
166 159 157 155 150 143 140 134 131 130 132 134 137 139 135 135 137 142 139 135 134 138 141 138 135 135 133 130 128 132 131 134 129 128 131 127 126 137 132 108 127 123 125
161 158 156 151 148 146 145 140 134 133 135 135 137 137 135 138 135 139 137 131 132 133 129 137 143 143 138 135 137 139 141 143 125 119 122 124 121 134 127 121 128 130 127
157 155 151 150 150 148 146 142 138 137 138 137 138 138 138 136 137 141 141 137 138 135 134 137 146 150 146 142 144 135 139 143 132 112 104 106 114 134 143 138 133 131 132
156 155 152 153 152 149 147 142 141 140 139 138 139 137 134 137 139 142 146 147 144 140 141 137 149 157 148 148 147 138 136 147 151 137 126 116 100 110 149 150 144 135 143
157 160 157 158 155 152 148 146 144 143 140 140 139 137 137 140 141 146 153 152 146 145 151 152 143 154 151 151 154 150 144 135 146 152 149 141 126 120 154 153 155 147 144
159 164 164 163 160 156 153 151 147 144 142 143 144 140 139 138 134 133 138 142 155 157 156 163 157 154 152 154 162 165 157 153 154 168 157 169 164 155 176 171 169 160 155
157 166 171 170 166 161 158 156 154 153 148 148 151 149 142 133 124 119 124 122 151 184 185 179 163 161 154 159 172 176 172 156 170 179 176 177 195 201 194 190 181 173 169
159 169 177 178 177 171 166 166 165 163 157 153 151 149 142 141 129 118 110 105 114 212 241 220 194 179 162 167 178 186 181 178 189 190 200 197 194 188 199 199 196 186 184
170 174 183 184 185 185 179 175 174 175 166 155 146 149 159 159 141 142 131 143 346 215 243 242 221 204 186 180 185 192 197 198 191 181 190 213 210 200 197 201 209 202 195
165 168 176 188 197 199 193 188 186 182 175 171 171 164 170 186 208 212 211 205 273 285 253 241 232 222 211 204 196 198 200 209 213 202 209 218 218 215 204 207 215 213 203
185 178 174 177 187 211 211 200 194 186 186 190 191 176 183 204 257 264 236 241 261 277 248 240 231 228 223 215 210 208 212 211 216 229 228 245 226 231 223 212 219 223 215
191 196 186 186 189 186 208 212 203 202 190 226 220 220 210 250 269 266 262 270 266 256 259 254 253 257 260 240 218 212 206 212 221 235 248 249 249 244 235 226 224 229 224
214 215 202 198 200 223 220 222 231 226 224 234 228 237 252 252 250 261 264 259 257 252 267 267 266 266 263 265 248 225 228 217 216 229 239 239 242 250 252 240 230 231 232
212 217 215 210 208 213 230 220 242 273 272 258 243 246 245 256 253 260 267 259 258 259 257 261 273 272 270 254 232 259 262 228 218 227 243 245 241 247 243 243 238 236 236
206 214 214 198 201 210 207 205 245 251 249 253 268 268 254 248 238 266 266 276 273 263 261 267 274 271 259 246 247 250 250 246 232 230 235 245 246 247 245 248 245 243 239
199 203 205 203 202 201 224 208 32 244 232 231 244 245 230 227 231 247 252 262 272 275 268 263 268 265 251 251 246 252 254 253 253 240 239 243 248 253 253 255 247 249 247
200 195 198 194 201 206 209 204 242 192 201 234 248 255 260 262 266 272 276 274 278 276 274 273 266 264 263 264 254 260 242 241 248 245 241 244 252 255 253 260 255 251 250
193 188 196 216 210 226 214 174 137 154 206 223 261 278 274 259 300 292 276 286 281 278 278 281 270 269 267 269 253 246 245 239 235 249 254 252 247 255 259 262 258 255 253
190 192 211 216 246 251 214 227 223 192 204 215 260 280 277 278 281 310 306 300 301 291 285 280 272 263 261 261 255 242 248 237 240 240 246 248 251 249 260 269 266 261 258
195 204 227 255 260 226 199 267 152 150 176 201 273 282 324 337 322 312 301 300 307 305 293 276 269 263 260 245 243 246 257 250 250 259 244 248 255 255 261 265 272 269 264
190 217 254 257 259 145 146 140 143 135 89 75 40 4 351 329 320 314 313 307 301 296 296 286 262 249 245 244 242 243 238 241 242 257 255 260 258 252 259 269 277 269 266
201 226 229 215 228 164 161 164 160 141 107 61 47 347 321 318 327 324 313 310 309 306 303 290 262 249 239 233 232 227 231 224 206 255 258 261 252 236 255 266 268 262 263
210 198 168 199 177 171 178 177 200 202 133 151 339 292 289 313 319 324 328 323 324 323 318 304 259 241 239 233 227 235 236 234 241 248 251 279 233 235 260 267 258 259 264
189 179 176 169 159 164 176 190 178 160 207 226 232 324 306 324 327 324 332 331 337 341 345 358 292 226 239 236 224 226 233 237 240 237 237 256 247 227 225 252 264 268 263